Regional Weather Roundup
Issued by NWS

Home | Current Version | Previous Version | Text Only | Print | Product List | Glossary Off
Versions: 1 2 3 4 5 6 7 8 9 10 11 12 13 14 15 16 17 18 19 20 21 22 23 24 25 26 27 28 29 30 31 32 33 34 35 36 37 38 39 40 41 42 43 44 45 46 47 48 49 50

000
ASUS45 KABQ 181801
RWRNM
WEATHER ROUNDUP FOR NEW MEXICO
NATIONAL WEATHER SERVICE ALBUQUERQUE NM
1200 PM MDT FRI APR 18 2014

NOTE: "FAIR" MEANS FEW OR NO CLOUDS BELOW 12,000 FEET AGL WITH NO
       SIGNIFICANT WEATHER OR OBSTRUCTIONS TO VISION.

      THIS PRODUCT IS RELEASED AS TWO VERSIONS.  ONE VERSION NEAR
      THE TOP OF THE HOUR CONTAINING PRELIMINARY DATA FROM ALBUQUERQUE
      AND OTHER STATIONS.  A FINAL VERSION WITH ADDITIONAL DATA IS
      ISSUED ABOUT 10 MINUTES AFTER THE HOUR.

NMZ501-503-504-510>518-181900-
NORTHWEST PLATEAU/NORTHCENTRAL MOUNTAINS

CITY           SKY/WX    TMP DP  RH WIND       PRES   REMARKS
FARMINGTON     SUNNY     70  23  17 SE12      30.07F
6HR MIN TEMP:  39; 6HR MAX TEMP:  70;

SANTA FE       SUNNY     64  24  21 VRB3      30.17F
6HR MIN TEMP:  36; 6HR MAX TEMP:  64;

TAOS           SUNNY     61  25  25 W10       30.23F

$$
NMZ402-403-502-505>509-181900-
WESTCENTRAL MOUNTAINS/SOUTHWEST MOUNTAINS

CITY           SKY/WX    TMP DP  RH WIND       PRES   REMARKS
GALLUP         CLOUDY    70  17  13 SW15G25   30.13F
6HR MIN TEMP:  31; 6HR MAX TEMP:  71;

SILVER CITY    CLOUDY    66  28  24 SE14G22   30.16F

$$
NMZ407-409-411-412-181900-
SOUTHERN DESERTS

CITY           SKY/WX    TMP DP  RH WIND       PRES   REMARKS
LORDSBURG      FAIR      70  30  23 SE17G23   30.08S
DEMING         CLOUDY    70  34  26 E10G20    30.10F
6HR MIN TEMP:  53; 6HR MAX TEMP:  70;

HOLLOMAN AFB   MOSUNNY   72  35  26 SW8       30.11F
T OR C         CLOUDY    69  28  21 S8        30.12F
6HR MIN TEMP:  48; 6HR MAX TEMP:  69;


$$
NMZ519>523-181900-
CENTRAL VALLEYS/CENTRAL HIGHLANDS

CITY           SKY/WX    TMP DP  RH WIND       PRES   REMARKS
ALBUQUERQUE    PTSUNNY   66  26  22 S12       30.15F
6HR MIN TEMP:  46; 6HR MAX TEMP:  66;

DOUBLE EAGLE   PTSUNNY   63  28  27 SE9       30.18F
CLINES CORNERS SUNNY     63  25  23 W17       30.20F
6HR MIN TEMP:  33; 6HR MAX TEMP:  64;

BELEN          FAIR      68  27  21 S13G21    30.14F
6HR MIN TEMP:  37; 6HR MAX TEMP:  69;

SOCORRO        NOT AVBL

$$
NMZ524>526-539-540-181900-
SOUTHCENTRAL MOUNTAINS

CITY           SKY/WX    TMP DP  RH WIND       PRES   REMARKS
RUIDOSO        NOT AVBL

$$
NMZ527>531-181900-
NORTHEAST HIGHLANDS/NORTHEAST PLAINS

CITY           SKY/WX    TMP DP  RH WIND       PRES   REMARKS
LAS VEGAS      SUNNY     67  23  19 S21G29    30.16F
6HR MIN TEMP:  32; 6HR MAX TEMP:  69;

RATON          SUNNY     58  33  39 S6        30.14F
6HR MIN TEMP:  31; 6HR MAX TEMP:  59;

CLAYTON        SUNNY     64  37  36 SW20G26   30.10F
6HR MIN TEMP:  35; 6HR MAX TEMP:  64;


$$
NMZ532>537-181900-
EASTCENTRAL PLAINS

CITY           SKY/WX    TMP DP  RH WIND       PRES   REMARKS
TUCUMCARI      MOSUNNY   64  44  48 SW22G28   30.14F
6HR MIN TEMP:  37; 6HR MAX TEMP:  65;

CANNON AFB     CLOUDY    58  42  54 S14       30.20F
6HR MIN TEMP:  35; 6HR MAX TEMP:  58;

CLOVIS AIRPORT CLOUDY    57  45  62 S13       30.24F

$$
NMZ028-029-538-181900-
SOUTHEAST PLAINS

CITY           SKY/WX    TMP DP  RH WIND       PRES   REMARKS
ROSWELL        PTSUNNY   59  47  64 S17G24    30.19F
6HR MIN TEMP:  49; 6HR MAX TEMP:  60;

CARLSBAD       CLOUDY    61  49  64 S14       30.18F
6HR MIN TEMP:  49; 6HR MAX TEMP:  61;

HOBBS          CLOUDY    57  52  82 SE15      30.23F


$$



USA.gov is the U.S. government's official web portal to all federal, state and local government web resources and services.